Torna al catalogo

ORBVIEW 1

MICROLAB

AttivoScienzaLEO
NORAD 23547·PAYLOAD·🇺🇸 United States

Lanciato Apr 3, 1995 da Vandenberg Space Force Base

Loading…

Prossimi Passaggi (prossime 24 ore)

TLE

AggiornatoSource: Space-Track

Epoca: Sep 14, 2026, 07:35 UTC

1 23547U 95017C   26257.31609195  .00000967  00000-0  18235-3 0  9993
2 23547  69.9778  10.4579 0010474 213.4509 146.5974 14.67613501671368

Traccia ORBVIEW 1 in tempo reale con AllMySat

Download on the App Store